• în România
  • Lista ţărilor
  • Pe 7 zile
  • Temperatura apei
  • Hartă satelitară
  • Meteo pe hartă
  • Widget-uri
  • user-avatar
    Intrare

    Meteo pe oră la Kipungo

    Astăzi, 21 Ianuarie, Duminică

    Timp Temperatura Precipitaţii Vânt Presiune Umiditate
    00:00 +20°C° 1,1 mm 2 m/s 652 mmHg 92%
    01:00 +20°C° 1,1 mm 2 m/s 652 mmHg 92%
    02:00 +19°C° 0,7 mm 2 m/s 652 mmHg 93%
    03:00 +19°C° 0,7 mm 2 m/s 652 mmHg 93%
    04:00 +19°C° 0,7 mm 2 m/s 652 mmHg 93%
    05:00 +19°C° 0,4 mm 2 m/s 652 mmHg 93%
    06:00 +19°C° 0,4 mm 2 m/s 652 mmHg 93%
    07:00 +19°C° 0,4 mm 2 m/s 652 mmHg 93%
    08:00 +20°C° 0,6 mm 2 m/s 653 mmHg 90%
    09:00 +20°C° 0,6 mm 2 m/s 653 mmHg 88%
    10:00 +21°C° 0,6 mm 2 m/s 654 mmHg 85%
    11:00 +23°C° 0,5 mm 2 m/s 653 mmHg 81%
    12:00 +24°C° 0,5 mm 2 m/s 653 mmHg 78%
    13:00 +24°C° 0,5 mm 2 m/s 653 mmHg 74%
    14:00 +24°C° 0,5 mm 2 m/s 653 mmHg 77%
    15:00 +23°C° 0,5 mm 2 m/s 652 mmHg 80%
    16:00 +23°C° 0,5 mm 2 m/s 651 mmHg 83%
    17:00 +21°C° 0,5 mm 2 m/s 651 mmHg 86%
    18:00 +20°C° 0,5 mm 2 m/s 652 mmHg 89%
    19:00 +20°C° 0,5 mm 2 m/s 652 mmHg 92%
    20:00 +19°C° 0,1 mm 2 m/s 652 mmHg 92%
    21:00 +19°C° 0,1 mm 2 m/s 652 mmHg 93%
    22:00 +19°C° 0,1 mm 2 m/s 653 mmHg 93%
    23:00 +19°C° 0,1 mm 2 m/s 653 mmHg 93%

    Mâine, 22 Ianuarie, Luni

    Timp Temperatura Precipitaţii Vânt Presiune Umiditate
    00:00 +19°C° 0,1 mm 1 m/s 652 mmHg 94%
    01:00 +19°C° 0,1 mm 1 m/s 652 mmHg 94%
    02:00 +19°C° 0,1 mm 1 m/s 652 mmHg 94%
    03:00 +19°C° 0,1 mm 1 m/s 652 mmHg 94%
    04:00 +19°C° 0,1 mm 1 m/s 652 mmHg 95%
    05:00 +19°C° 0,2 mm 1 m/s 652 mmHg 94%
    06:00 +19°C° 0,2 mm 1 m/s 653 mmHg 94%
    07:00 +19°C° 0,2 mm 1 m/s 653 mmHg 94%
    08:00 +20°C° 0,2 mm 1 m/s 653 mmHg 91%
    09:00 +20°C° 0,2 mm 1 m/s 654 mmHg 88%
    10:00 +21°C° 0,2 mm 1 m/s 654 mmHg 85%
    11:00 +20°C° 0,4 mm 2 m/s 653 mmHg 83%
    12:00 +21°C° 0,4 mm 2 m/s 653 mmHg 82%
    13:00 +21°C° 0,4 mm 2 m/s 652 mmHg 80%
    14:00 +21°C° 0,3 mm 2 m/s 652 mmHg 78%
    15:00 +23°C° 0,3 mm 2 m/s 652 mmHg 76%
    16:00 +23°C° 0,3 mm 2 m/s 651 mmHg 73%
    17:00 +21°C° 0,3 mm 2 m/s 652 mmHg 78%
    18:00 +20°C° 0,3 mm 2 m/s 652 mmHg 83%
    19:00 +20°C° 0,3 mm 1 m/s 652 mmHg 88%
    20:00 +20°C° 0 mm 1 m/s 652 mmHg 90%
    21:00 +19°C° 0 mm 1 m/s 653 mmHg 92%
    22:00 +19°C° 0 mm 1 m/s 653 mmHg 93%
    23:00 +19°C° 0 mm 1 m/s 653 mmHg 94%

    Poimâine, 23 Ianuarie, Marţi

    Timp Temperatura Precipitaţii Vânt Presiune Umiditate
    00:00 +19°C° 0 mm 1 m/s 652 mmHg 94%
    01:00 +18°C° 0 mm 1 m/s 652 mmHg 95%
    02:00 +18°C° 0 mm 1 m/s 651 mmHg 95%
    03:00 +18°C° 0 mm 1 m/s 651 mmHg 95%
    04:00 +18°C° 0 mm 1 m/s 651 mmHg 95%
    05:00 +19°C° 0 mm 1 m/s 651 mmHg 94%
    06:00 +19°C° 0 mm 1 m/s 652 mmHg 93%
    07:00 +19°C° 0 mm 1 m/s 652 mmHg 92%
    08:00 +21°C° 0,2 mm 1 m/s 653 mmHg 86%
    09:00 +23°C° 0,2 mm 1 m/s 653 mmHg 79%
    10:00 +25°C° 0,2 mm 1 m/s 654 mmHg 72%
    11:00 +26°C° 1,3 mm 1 m/s 653 mmHg 71%
    12:00 +27°C° 1,3 mm 1 m/s 653 mmHg 69%
    13:00 +27°C° 1,3 mm 1 m/s 652 mmHg 67%
    14:00 +27°C° 1,8 mm 1 m/s 652 mmHg 71%
    15:00 +26°C° 1,8 mm 1 m/s 651 mmHg 74%
    16:00 +25°C° 1,8 mm 2 m/s 650 mmHg 77%
    17:00 +24°C° 1,4 mm 2 m/s 650 mmHg 81%
    18:00 +21°C° 1,4 mm 2 m/s 650 mmHg 85%
    19:00 +20°C° 1,4 mm 2 m/s 651 mmHg 88%
    20:00 +20°C° 0,7 mm 2 m/s 651 mmHg 89%
    21:00 +20°C° 0,7 mm 2 m/s 652 mmHg 90%
    22:00 +19°C° 0,7 mm 2 m/s 652 mmHg 91%
    23:00 +19°C° 0,3 mm 2 m/s 652 mmHg 92%

    24 Ianuarie, Miercuri

    Timp Temperatura Precipitaţii Vânt Presiune Umiditate
    00:00 +19°C° 0,3 mm 2 m/s 651 mmHg 93%
    01:00 +19°C° 0,3 mm 2 m/s 651 mmHg 94%
    02:00 +18°C° 0,5 mm 2 m/s 651 mmHg 95%
    03:00 +19°C° 0,5 mm 1 m/s 651 mmHg 95%
    04:00 +19°C° 0,5 mm 1 m/s 651 mmHg 96%
    05:00 +19°C° 0,4 mm 1 m/s 651 mmHg 96%
    06:00 +19°C° 0,4 mm 1 m/s 652 mmHg 95%
    07:00 +18°C° 0,4 mm 0 m/s 652 mmHg 95%
    08:00 +20°C° 0,6 mm 1 m/s 653 mmHg 92%
    09:00 +21°C° 0,6 mm 1 m/s 653 mmHg 88%
    10:00 +22°C° 0,6 mm 1 m/s 653 mmHg 84%
    11:00 +23°C° 0,6 mm 1 m/s 653 mmHg 81%
    12:00 +24°C° 0,6 mm 2 m/s 652 mmHg 77%
    13:00 +24°C° 0,6 mm 2 m/s 652 mmHg 74%
    14:00 +24°C° 0,7 mm 2 m/s 652 mmHg 73%
    15:00 +24°C° 0,7 mm 2 m/s 651 mmHg 73%
    16:00 +24°C° 0,7 mm 2 m/s 651 mmHg 72%
    17:00 +23°C° 0,4 mm 2 m/s 651 mmHg 77%
    18:00 +22°C° 0,4 mm 1 m/s 652 mmHg 81%
    19:00 +21°C° 0,4 mm 1 m/s 652 mmHg 86%
    20:00 +21°C° 0,2 mm 1 m/s 652 mmHg 87%
    21:00 +20°C° 0,2 mm 1 m/s 652 mmHg 88%
    22:00 +20°C° 0,2 mm 1 m/s 653 mmHg 88%
    23:00 +20°C° 0,1 mm 1 m/s 652 mmHg 89%

    25 Ianuarie, Joi

    Timp Temperatura Precipitaţii Vânt Presiune Umiditate
    00:00 +19°C° 0,1 mm 1 m/s 652 mmHg 90%
    01:00 +18°C° 0,1 mm 2 m/s 651 mmHg 90%
    02:00 +19°C° 0 mm 1 m/s 651 mmHg 91%
    03:00 +19°C° 0 mm 1 m/s 651 mmHg 91%
    04:00 +19°C° 0 mm 1 m/s 651 mmHg 91%
    05:00 +19°C° 0 mm 1 m/s 651 mmHg 91%
    06:00 +19°C° 0 mm 1 m/s 652 mmHg 91%
    07:00 +17°C° 0 mm 0 m/s 652 mmHg 91%
    08:00 +22°C° 0,1 mm 1 m/s 653 mmHg 81%
    09:00 +25°C° 0,1 mm 1 m/s 654 mmHg 70%
    10:00 +27°C° 0,1 mm 1 m/s 655 mmHg 60%
    11:00 +28°C° 0,7 mm 1 m/s 654 mmHg 59%
    12:00 +28°C° 0,7 mm 1 m/s 654 mmHg 58%
    13:00 +29°C° 0,7 mm 1 m/s 653 mmHg 57%
    14:00 +28°C° 2 mm 1 m/s 653 mmHg 62%
    15:00 +27°C° 2 mm 1 m/s 652 mmHg 68%
    16:00 +25°C° 2 mm 1 m/s 651 mmHg 74%
    17:00 +24°C° 0,7 mm 1 m/s 652 mmHg 78%
    18:00 +23°C° 0,7 mm 1 m/s 652 mmHg 81%
    19:00 +22°C° 0,7 mm 1 m/s 652 mmHg 85%
    20:00 +21°C° 0,1 mm 1 m/s 652 mmHg 86%
    21:00 +21°C° 0,1 mm 1 m/s 652 mmHg 87%
    22:00 +20°C° 0,1 mm 1 m/s 653 mmHg 88%
    23:00 +20°C° 0,1 mm 1 m/s 652 mmHg 88%

    26 Ianuarie, Vineri

    Timp Temperatura Precipitaţii Vânt Presiune Umiditate
    00:00 +20°C° 0,1 mm 1 m/s 652 mmHg 89%
    01:00 +19°C° 0,1 mm 1 m/s 652 mmHg 89%
    02:00 +19°C° 0,1 mm 1 m/s 651 mmHg 90%
    03:00 +19°C° 0,1 mm 1 m/s 651 mmHg 91%
    04:00 +19°C° 0,1 mm 1 m/s 651 mmHg 91%
    05:00 +19°C° 0,1 mm 1 m/s 652 mmHg 91%
    06:00 +20°C° 0,1 mm 1 m/s 652 mmHg 90%
    07:00 +18°C° 0,1 mm 0 m/s 653 mmHg 89%
    08:00 +22°C° 0,2 mm 1 m/s 653 mmHg 82%
    09:00 +24°C° 0,2 mm 1 m/s 654 mmHg 74%
    10:00 +26°C° 0,2 mm 1 m/s 654 mmHg 67%
    11:00 +26°C° 0,3 mm 1 m/s 654 mmHg 66%
    12:00 +26°C° 0,3 mm 1 m/s 653 mmHg 65%
    13:00 +27°C° 0,3 mm 1 m/s 653 mmHg 63%
    14:00 +27°C° 0,4 mm 1 m/s 652 mmHg 65%
    15:00 +26°C° 0,4 mm 1 m/s 651 mmHg 67%
    16:00 +26°C° 0,4 mm 1 m/s 651 mmHg 69%
    17:00 +25°C° 0,4 mm 1 m/s 651 mmHg 74%
    18:00 +23°C° 0,4 mm 1 m/s 651 mmHg 79%
    19:00 +22°C° 0,4 mm 1 m/s 651 mmHg 84%
    20:00 +22°C° 0 mm 1 m/s 651 mmHg 85%
    21:00 +21°C° 0 mm 1 m/s 652 mmHg 85%
    22:00 +21°C° 0 mm 1 m/s 652 mmHg 86%
    23:00 +21°C° 0,1 mm 1 m/s 652 mmHg 87%
    Arată mai mult